[[{"header":{"parameterUnit":"m.s-1","parameterCategory":1,"la1":30.2991,"la2":30.254,"lo1":-89.0895,"lo2":-89.0444,"dy":0.0017,"dx":0.0017,"nx":28,"ny":28,"refTime":"2023-08-18T09:00:00:Z","depth":0,"parameterNumber":2,"parameterNumberName":"U-component_of_WINDS"},"data":[0,0,0,0,0,0,0,0,0,0,0,0,0,0,0,0,0,0,0,0,0,0,0,0,0,0,0,0,0,0,0,0,0,0,0,0,0,0,0,0,0,0,0,0,0,0,0,0,0,0,0,0,0,0,0,0,0,0,1.0769,1.0768,0,1.0694,1.0693,1.0693,1.0603,1.0602,1.06,1.0599,1.0525,1.0524,1.0523,0,0,0,0,0,0,0,0,0,0,0,0,0,1.0835,1.0834,1.0769,1.0768,1.0767,1.0694,1.0693,1.0692,1.0603,1.0602,1.06,1.0598,1.0525,1.0524,1.0523,0,0,0,0,0,0,0,0,0,0,0,0,0,1.0788,1.0834,1.077,1.0714,1.0708,1.0695,1.0693,1.0692,1.0604,1.0601,1.0599,1.0597,1.0525,1.0524,1.0523,1.0558,0,0,1.052,1.0519,0,0,0,0,0,0,0,0,1.0791,1.0786,1.0723,1.0718,1.0711,1.0656,1.0689,1.0647,1.0604,1.0643,1.0599,1.0596,1.057,1.0565,1.0556,1.0555,1.0552,1.052,1.0519,1.0519,1.0518,0,0,0,0,0,0,0,1.0794,1.0789,1.074,1.0722,1.0715,1.0693,1.0684,1.0681,1.062,1.064,1.0633,1.0625,1.0566,1.0557,1.0553,1.0551,1.052,1.0519,1.0518,1.0518,1.0572,1.0574,0,0,0,0,0,0,1.0806,1.0792,1.0742,1.0737,1.0747,1.0693,1.0683,1.0676,1.0619,1.0609,1.0627,1.0622,1.056,1.0555,1.055,1.0586,1.0519,1.0518,1.0517,1.057,1.0572,1.0574,0,0,0,0,0,0,1.0808,1.0802,1.0745,1.0763,1.0754,1.0695,1.0687,1.0675,1.0666,1.061,1.0598,1.0629,1.0558,1.0552,1.0556,1.0582,1.0517,1.0516,1.0567,1.057,1.0573,1.0658,0,0,0,0,0,0,1.081,1.0803,1.0816,1.0764,1.0753,1.0752,1.0688,1.0676,1.0664,1.0656,1.0608,1.0598,1.0556,1.0558,1.0555,1.0579,1.0516,1.0565,1.0569,1.0572,1.0653,1.0664,1.0673,0,0,0,0,0,1.0813,1.0845,1.0818,1.0812,1.0768,1.0754,1.0748,1.0698,1.0667,1.0679,1.0642,1.06,1.058,1.0559,1.0555,1.058,1.0563,1.0567,1.0572,1.0648,1.0662,1.0673,0,0,0,0,0,0,1.0903,1.0837,1.0806,1.0822,1.0794,1.0739,1.0753,1.0714,1.0695,1.0688,1.0628,1.0618,1.0629,1.0605,1.0583,1.0609,1.0565,1.0569,1.0624,1.0637,1.0647,1.0652,1.0515,0,0,0,0,0,1.0925,1.0919,1.0861,1.0881,1.0868,1.0813,1.0805,1.0769,1.0738,1.0726,1.069,1.0662,1.0648,1.0641,1.0627,1.0649,1.0636,1.0663,1.0674,1.0682,1.0686,1.0693,1.0704,1.0589,1.0589,1.0589,0,0,1.097,1.0933,1.0933,1.0898,1.0872,1.0866,1.0804,1.0802,1.0796,1.0726,1.0726,1.0699,1.0664,1.0676,1.068,1.0657,1.0715,1.0688,1.0695,1.0694,1.0699,1.071,1.072,1.0592,1.0592,1.0591,0,0,1.1049,1.1021,1.1032,1.1007,1.0968,1.0931,1.0934,1.0884,1.0862,1.0862,1.0808,1.0801,1.0781,1.0757,1.0742,1.0809,1.0769,1.0806,1.0859,1.0867,1.0876,1.0884,1.0905,1.0914,1.0811,1.0811,1.0811,0,1.111,1.1099,1.1044,1.1043,1.1029,1.0963,1.0974,1.0952,1.0911,1.0902,1.0876,1.0847,1.0819,1.0824,1.084,1.0831,1.0831,1.0811,1.0879,1.0886,1.0892,1.0912,1.0921,1.0815,1.0815,1.0814,1.0814,0,1.1174,1.1168,1.1182,1.1142,1.1129,1.1135,1.108,1.1073,1.1037,1.1003,1.1002,1.0966,1.0941,1.094,1.0906,1.0939,1.0925,1.089,1.0844,1.0909,1.0926,1.0934,1.0822,1.082,1.0819,1.0818,0,0,1.1309,1.1236,1.1242,1.1222,1.1173,1.1167,1.1169,1.1143,1.1138,1.1111,1.111,1.1093,1.1059,1.1043,1.1005,1.1012,1.1065,1.0976,1.0974,1.0992,1.1096,1.1121,1.1131,1.1038,1.1039,1.104,1.1098,0,1.1377,1.1375,1.1325,1.1337,1.1329,1.1265,1.1267,1.1237,1.1204,1.1192,1.1156,1.1144,1.1102,1.1091,1.1095,1.1058,1.1084,1.1053,1.1035,1.1035,1.1044,1.1141,1.1168,1.1225,1.1105,1.1106,1.1107,0,1.1457,1.1432,1.1444,1.1392,1.1386,1.1389,1.1359,1.135,1.1314,1.1289,1.1269,1.1226,1.1223,1.1181,1.1175,1.1154,1.1144,1.1124,1.1125,1.1121,1.1074,1.1137,1.1242,1.125,1.1118,1.1117,1.1116,0,1.155,1.1521,1.1523,1.1508,1.1449,1.1451,1.1426,1.1388,1.1375,1.135,1.1341,1.1317,1.1303,1.1285,1.1236,1.1209,1.1235,1.1189,1.1213,1.1215,1.1221,1.1221,1.1324,1.1218,1.1217,1.1217,1.1217,0,1.1631,1.164,1.1564,1.1565,1.1573,1.1514,1.1523,1.1493,1.1459,1.1452,1.1397,1.1392,1.1328,1.1316,1.1277,1.1277,1.1272,1.1251,1.1241,1.1255,1.1258,1.1247,1.1241,1.1219,1.1219,1.1219,1.1218,0,1.1737,1.1687,1.1684,1.1627,1.1613,1.1621,1.1572,1.157,1.1533,1.1526,1.152,1.1463,1.1445,1.1394,1.1365,1.1339,1.1349,1.133,1.1361,1.1354,1.138,1.1378,1.1479,1.1488,1.1378,1.1379,1.138,0,1.1791,1.1796,1.1738,1.1729,1.1707,1.1694,1.1679,1.1622,1.1609,1.1567,1.157,1.1548,1.1527,1.1501,1.1457,1.1433,1.1412,1.1449,1.1408,1.1422,1.141,1.1409,1.1408,1.1458,1.1459,1.146,1.1461,0,1.1891,1.1865,1.1846,1.1819,1.1803,1.1779,1.1751,1.1747,1.1682,1.1671,1.1651,1.1635,1.1603,1.1581,1.1549,1.1523,1.1481,1.1475,1.1478,1.1493,1.1509,1.1498,1.1383,1.1472,1.1471,1.1471,1.147,1.1469,1.197,1.1971,1.193,1.191,1.1883,1.1858,1.1853,1.1815,1.1797,1.1766,1.1733,1.1717,1.1678,1.1631,1.1608,1.1594,1.1572,1.1579,1.158,1.1582,1.1588,1.1513,1.1588,1.1588,1.1588,1.1587,1.1587,0,1.2066,1.2036,1.2018,1.198,1.1965,1.1926,1.1893,1.1882,1.1868,1.1836,1.1815,1.1792,1.1769,1.1722,1.1695,1.1693,1.1673,1.1688,1.1686,1.1681,1.161,1.1608,1.1704,1.1704,1.1704,1.1704,1.1704,1.1704,1.2113,1.2111,1.208,1.2063,1.2033,1.2016,1.2,1.1976,1.1949,1.1925,1.1906,1.1875,1.1836,1.1805,1.1782,1.1769,1.1761,1.1782,1.1762,1.1697,1.1686,1.1675,1.1673,1.1781,1.1781,1.1833,1.1834,1.1834]},{"header":{"parameterUnit":"m.s-1","parameterCategory":1,"la1":30.2991,"la2":30.254,"lo1":-89.0895,"lo2":-89.0444,"dy":0.0017,"dx":0.0017,"nx":28,"ny":28,"refTime":"2023-08-18T09:00:00:Z","depth":0,"parameterNumber":3,"parameterNumberName":"V-component_of_WINDS"},"data":[0,0,0,0,0,0,0,0,0,0,0,0,0,0,0,0,0,0,0,0,0,0,0,0,0,0,0,0,0,0,0,0,0,0,0,0,0,0,0,0,0,0,0,0,0,0,0,0,0,0,0,0,0,0,0,0,0,0,5.4576,5.4577,0,5.4587,5.4587,5.4587,5.4505,5.4503,5.4501,5.4498,5.4506,5.4508,5.451,0,0,0,0,0,0,0,0,0,0,0,0,0,5.4484,5.4486,5.4576,5.4577,5.4577,5.4587,5.4587,5.4587,5.4506,5.4503,5.45,5.4497,5.4505,5.4508,5.451,0,0,0,0,0,0,0,0,0,0,0,0,0,5.4512,5.4486,5.4576,5.4537,5.4534,5.4587,5.4587,5.4587,5.4506,5.4503,5.4499,5.4496,5.4504,5.4507,5.4511,5.46,0,0,5.4521,5.4523,0,0,0,0,0,0,0,0,5.451,5.4515,5.4543,5.454,5.4536,5.4541,5.4557,5.4591,5.4507,5.4517,5.4498,5.4494,5.452,5.4522,5.4531,5.4601,5.4601,5.4522,5.4524,5.4525,5.4526,0,0,0,0,0,0,0,5.4508,5.4514,5.458,5.4543,5.454,5.4518,5.4519,5.4563,5.4537,5.4516,5.451,5.4512,5.4518,5.4528,5.4531,5.4601,5.4522,5.4525,5.4527,5.4528,5.4744,5.4747,0,0,0,0,0,0,5.4512,5.4513,5.458,5.4581,5.4515,5.4523,5.4523,5.4543,5.4537,5.4532,5.4515,5.4508,5.4524,5.4527,5.4531,5.4634,5.4525,5.4529,5.4531,5.474,5.4745,5.4749,0,0,0,0,0,0,5.4511,5.4519,5.458,5.4545,5.4552,5.4528,5.4551,5.4545,5.4555,5.4536,5.4531,5.4531,5.4521,5.4526,5.4584,5.4633,5.453,5.4533,5.4736,5.4742,5.4747,5.4843,0,0,0,0,0,0,5.4508,5.4519,5.4553,5.4547,5.4554,5.4633,5.4554,5.4548,5.4562,5.4553,5.4549,5.4546,5.4519,5.4579,5.4587,5.4636,5.4536,5.4731,5.4739,5.4745,5.4835,5.4851,5.4865,0,0,0,0,0,5.4505,5.4579,5.4555,5.4564,5.4596,5.4636,5.464,5.4609,5.4566,5.46,5.4588,5.4546,5.4627,5.4586,5.4594,5.4645,5.4728,5.4737,5.4745,5.4828,5.4848,5.4864,0,0,0,0,0,0,5.459,5.4577,5.4551,5.4625,5.4633,5.4623,5.4664,5.4631,5.4649,5.464,5.46,5.46,5.4664,5.4661,5.4615,5.4731,5.467,5.468,5.4731,5.4749,5.4764,5.4762,5.4539,0,0,0,0,0,5.4618,5.4653,5.4639,5.4706,5.4712,5.4688,5.4704,5.468,5.4685,5.4688,5.4679,5.4686,5.4712,5.4731,5.4755,5.4835,5.4832,5.4874,5.4889,5.4901,5.491,5.4951,5.4969,5.4776,5.4776,5.4775,0,0,5.4675,5.4672,5.4696,5.4723,5.4726,5.4762,5.4691,5.4731,5.4757,5.4693,5.4747,5.4742,5.4746,5.4816,5.4846,5.4814,5.4963,5.4912,5.4921,5.4923,5.4962,5.498,5.4996,5.4781,5.478,5.4779,0,0,5.4796,5.4799,5.4854,5.4859,5.4865,5.4849,5.4863,5.4858,5.4852,5.4907,5.4859,5.4889,5.4937,5.4942,5.495,5.5076,5.5037,5.5085,5.5161,5.5202,5.5217,5.523,5.5274,5.529,5.5094,5.5094,5.5094,0,5.4866,5.4919,5.4887,5.4931,5.4944,5.489,5.4945,5.4951,5.4964,5.4974,5.4939,5.4998,5.4997,5.5067,5.5097,5.5107,5.512,5.5084,5.5218,5.5231,5.5242,5.5283,5.53,5.51,5.5099,5.5099,5.5098,0,5.5003,5.5041,5.5085,5.5101,5.5119,5.5169,5.5143,5.5165,5.514,5.5128,5.5183,5.5181,5.5203,5.5218,5.5193,5.5284,5.5264,5.5225,5.5162,5.5267,5.5305,5.532,5.5108,5.5106,5.5104,5.5103,0,0,5.5176,5.5175,5.5192,5.5198,5.5201,5.5229,5.5277,5.53,5.5319,5.533,5.5368,5.541,5.5374,5.5384,5.5359,5.5396,5.5494,5.5351,5.535,5.5376,5.5593,5.5622,5.564,5.547,5.5472,5.5475,5.5592,0,5.5294,5.5375,5.5349,5.5431,5.5464,5.5414,5.5455,5.5462,5.5452,5.5478,5.5467,5.5497,5.5447,5.5453,5.5487,5.5475,5.5537,5.5466,5.5503,5.5504,5.5501,5.566,5.569,5.5801,5.5607,5.5609,5.5611,0,5.5441,5.546,5.5546,5.5544,5.5557,5.5595,5.5614,5.564,5.5646,5.5636,5.5649,5.5617,5.5662,5.5602,5.5663,5.5616,5.563,5.5626,5.563,5.563,5.5563,5.5663,5.5836,5.5852,5.5634,5.5632,5.5631,0,5.5557,5.5604,5.5661,5.5668,5.5668,5.5695,5.5696,5.5699,5.5715,5.5732,5.5741,5.5763,5.5774,5.5791,5.5766,5.5724,5.5831,5.5768,5.5822,5.5823,5.5845,5.5844,5.602,5.5857,5.5857,5.5857,5.5857,0,5.5689,5.5743,5.5713,5.5748,5.5807,5.5776,5.5835,5.583,5.5834,5.5866,5.5825,5.5856,5.5821,5.5849,5.583,5.5883,5.5889,5.5881,5.5875,5.5884,5.5885,5.5891,5.5882,5.5861,5.586,5.5859,5.5859,0,5.5827,5.5809,5.5868,5.5864,5.5864,5.5908,5.5904,5.5936,5.5924,5.5965,5.5973,5.5954,5.5985,5.5962,5.5992,5.5979,5.6049,5.6033,5.6047,5.6042,5.6097,5.6092,5.6283,5.6305,5.613,5.6131,5.6133,0,5.5912,5.5953,5.5954,5.5973,5.5977,5.6009,5.6026,5.5997,5.6016,5.6026,5.6057,5.6085,5.6105,5.6156,5.6144,5.6167,5.615,5.6215,5.6153,5.6161,5.6149,5.6146,5.615,5.6227,5.6229,5.6231,5.6232,0,5.6064,5.6053,5.6079,5.6103,5.6124,5.614,5.6153,5.6172,5.6143,5.6166,5.6197,5.6214,5.6245,5.6273,5.6292,5.6291,5.6257,5.6253,5.6266,5.6275,5.6281,5.6277,5.608,5.6248,5.6246,5.6245,5.6244,5.6244,5.6176,5.621,5.6217,5.6247,5.6254,5.6268,5.6298,5.629,5.6317,5.6341,5.6323,5.636,5.6366,5.6388,5.6392,5.642,5.6393,5.6413,5.6418,5.6423,5.643,5.6278,5.6424,5.6424,5.6423,5.6423,5.6422,0,5.6325,5.6327,5.6355,5.6376,5.64,5.6368,5.6381,5.6402,5.6437,5.6445,5.6467,5.6503,5.653,5.6522,5.6545,5.657,5.6555,5.6577,5.6574,5.6574,5.6454,5.6439,5.6589,5.6589,5.6589,5.6589,5.6589,5.6589,5.6404,5.646,5.6451,5.6509,5.6511,5.6548,5.6559,5.6571,5.6577,5.6621,5.6643,5.6638,5.664,5.6663,5.6687,5.6683,5.6693,5.6721,5.6712,5.6599,5.6582,5.6567,5.6553,5.6724,5.6724,5.6829,5.683,5.6831]}]]